SBI436 USHH-USTR

Flight info

Callsign SBI436
Flight time N/A
Altitude 34000
Route RILPA1C RILPA R124 NASDA T797 NERUG NERUG1M
Aircraft B38M/M-SDE1FGHILORVWXY/HB1

Departure

Time 2026-04-21 17:32
Airport Khanty Mansiysk Airport (USHH)

Arrival

Time N/A
Airport Roshchino International Airport (USTR)
Time Latitude Longitude Altitude Speed Heading
2026-04-21 16:58 61.02684 69.09510 149 ft 0 kts 165°
2026-04-21 17:00 61.02685 69.09510 149 ft 0 kts 165°
2026-04-21 17:18 61.02697 69.09503 149 ft 4 kts 169°
2026-04-21 17:19 61.02722 69.09502 149 ft 4 kts 202°
2026-04-21 17:19 61.02735 69.09518 149 ft 4 kts 246°
2026-04-21 17:19 61.02737 69.09529 149 ft 1 kts 255°
2026-04-21 17:22 61.02737 69.09530 149 ft 0 kts 255°
2026-04-21 17:24 61.02735 69.09512 149 ft 3 kts 255°
2026-04-21 17:24 61.02729 69.09461 149 ft 5 kts 255°
2026-04-21 17:24 61.02723 69.09375 149 ft 7 kts 272°
2026-04-21 17:25 61.02748 69.09308 149 ft 7 kts 316°
2026-04-21 17:25 61.02757 69.09211 148 ft 8 kts 262°
2026-04-21 17:25 61.02743 69.09084 148 ft 10 kts 256°
2026-04-21 17:25 61.02723 69.08921 148 ft 13 kts 255°
2026-04-21 17:26 61.02698 69.08722 148 ft 17 kts 255°
2026-04-21 17:26 61.02663 69.08449 147 ft 23 kts 255°
2026-04-21 17:26 61.02620 69.08105 147 ft 26 kts 255°
2026-04-21 17:26 61.02580 69.07796 146 ft 22 kts 255°
2026-04-21 17:27 61.02545 69.07522 146 ft 16 kts 256°
2026-04-21 17:27 61.02543 69.07395 146 ft 0 kts 279°
2026-04-21 17:27 61.02544 69.07385 146 ft 2 kts 283°
2026-04-21 17:28 61.02553 69.07342 146 ft 5 kts 300°
2026-04-21 17:28 61.02580 69.07279 145 ft 7 kts 321°
2026-04-21 17:28 61.02632 69.07219 145 ft 10 kts 326°
2026-04-21 17:28 61.02657 69.07083 145 ft 12 kts 264°
2026-04-21 17:29 61.02637 69.06890 143 ft 15 kts 255°
2026-04-21 17:29 61.02608 69.06674 145 ft 16 kts 255°
2026-04-21 17:29 61.02579 69.06444 146 ft 17 kts 255°
2026-04-21 17:29 61.02528 69.06221 146 ft 18 kts 243°
2026-04-21 17:30 61.02536 69.06175 146 ft 0 kts 349°
2026-04-21 17:30 61.02537 69.06177 146 ft 0 kts
2026-04-21 17:30 61.02548 69.06214 146 ft 7 kts 70°
2026-04-21 17:30 61.02552 69.06242 146 ft 0 kts 73°
2026-04-21 17:31 61.02554 69.06258 147 ft 0 kts 73°
2026-04-21 17:32 61.02594 69.06561 145 ft 63 kts 75°
2026-04-21 17:32 61.02778 69.08011 148 ft 143 kts 75°
2026-04-21 17:32 61.03053 69.10255 646 ft 168 kts 77°
2026-04-21 17:32 61.03330 69.12517 1922 ft 158 kts 79°
2026-04-21 17:33 61.03609 69.14713 2921 ft 162 kts 79°
2026-04-21 17:33 61.03907 69.17050 3637 ft 177 kts 79°
2026-04-21 17:33 61.04242 69.19686 4209 ft 202 kts 78°
2026-04-21 17:33 61.04604 69.22640 4934 ft 221 kts 82°
2026-04-21 17:34 61.04618 69.25909 5629 ft 238 kts 105°
2026-04-21 17:34 61.03850 69.29045 6329 ft 255 kts 129°
2026-04-21 17:34 61.02470 69.31347 6938 ft 259 kts 155°
2026-04-21 17:34 61.00700 69.32062 7558 ft 264 kts 183°
2026-04-21 17:35 60.98927 69.31044 8203 ft 269 kts 210°
2026-04-21 17:35 60.97325 69.28998 8880 ft 272 kts 211°
2026-04-21 17:35 60.95691 69.27008 9553 ft 274 kts 212°
2026-04-21 17:35 60.94040 69.25004 10199 ft 277 kts 212°
2026-04-21 17:36 60.92368 69.22982 10818 ft 280 kts 212°
2026-04-21 17:36 60.90695 69.20961 11446 ft 283 kts 212°
2026-04-21 17:36 60.88966 69.18876 12097 ft 286 kts 212°
2026-04-21 17:36 60.87231 69.16789 12747 ft 290 kts 212°
2026-04-21 17:37 60.85512 69.14724 13412 ft 293 kts 213°
2026-04-21 17:37 60.83744 69.12602 14067 ft 296 kts 213°
2026-04-21 17:37 60.81965 69.10471 14672 ft 298 kts 213°
2026-04-21 17:37 60.80172 69.08324 15281 ft 299 kts 214°
2026-04-21 17:38 60.78373 69.06173 15901 ft 300 kts 214°
2026-04-21 17:38 60.76567 69.04013 16459 ft 301 kts 212°
2026-04-21 17:38 60.74750 69.01846 17082 ft 303 kts 213°
2026-04-21 17:38 60.72923 68.99669 17730 ft 305 kts 213°
2026-04-21 17:39 60.71083 68.97479 18367 ft 307 kts 213°
2026-04-21 17:39 60.69228 68.95275 18933 ft 309 kts 213°
2026-04-21 17:39 60.67363 68.93058 19509 ft 312 kts 213°
2026-04-21 17:39 60.65481 68.90827 20102 ft 314 kts 213°
2026-04-21 17:40 60.63582 68.88576 20695 ft 316 kts 213°
2026-04-21 17:40 60.61673 68.86319 21297 ft 318 kts 213°
2026-04-21 17:40 60.59633 68.84524 21916 ft 323 kts 201°
2026-04-21 17:40 60.57494 68.83143 22577 ft 323 kts 202°
2026-04-21 17:41 60.55384 68.81760 23216 ft 322 kts 202°
2026-04-21 17:41 60.53224 68.80358 23849 ft 320 kts 202°
2026-04-21 17:41 60.51110 68.78991 24421 ft 318 kts 203°
2026-04-21 17:41 60.49087 68.77460 24990 ft 313 kts 205°
2026-04-21 17:42 60.47055 68.75899 25568 ft 310 kts 205°
2026-04-21 17:42 60.45445 68.74672 26052 ft 306 kts 205°